User: anonymous   Login
Location: Pulvis Stellarum Observatory
(41.6962°N, 71.4263°W)
Time: 16:45:16
(UTC-04:00)
Language:

Cosmos 1758 - Orbit

View from above orbital plane
View from above orbital plane
View from above satellite
View from above satellite

Ground track
Ground track

The orbit data is extracted from the following two-line orbital elements,

1 16791U 86046A   15090.48533338  .00003739  00000-0  27775-3 0  9993
2 16791 082.4677 099.2298 0016066 324.4596 035.5557 15.02668602564147
Epoch (UTC): 31 March 2015 11:38:52
Eccentricity: 0.0016066
inclination: 82.4677°
perigee height: 547 km
apogee height: 570 km
right ascension of ascending node: 99.2298°
argument of perigee: 324.4596°
revolutions per day: 15.02668602
mean anomaly at epoch: 35.5557°
orbit number at epoch: 56414

The dashed part of the orbit path shows where the satellite is in the earth's shadow,  

DLR